[[{"header":{"parameterUnit":"m.s-1","parameterCategory":1,"la1":30.2991,"la2":30.254,"lo1":-89.0895,"lo2":-89.0444,"dy":0.0017,"dx":0.0017,"nx":28,"ny":28,"refTime":"2025-12-28T09:00:00:Z","depth":0,"parameterNumber":2,"parameterNumberName":"U-component_of_WINDS"},"data":[0,0,0,0,0,0,0,0,0,0,0,0,0,0,0,0,0,0,0,0,0,0,0,0,0,0,0,0,0,0,0,0,0,0,0,0,0,0,0,0,0,0,0,0,0,0,0,0,0,0,0,0,0,0,0,0,0,0,2.3064,2.3064,0,2.3076,2.3076,2.3076,2.3059,2.3059,2.3058,2.3057,2.3068,2.3068,2.3069,0,0,0,0,0,0,0,0,0,0,0,0,0,2.3027,2.3028,2.3064,2.3064,2.3064,2.3076,2.3076,2.3076,2.3059,2.3059,2.3058,2.3057,2.3067,2.3068,2.3069,0,0,0,0,0,0,0,0,0,0,0,0,0,2.3041,2.3028,2.3064,2.3057,2.3057,2.3076,2.3076,2.3076,2.3059,2.3059,2.3058,2.3057,2.3067,2.3068,2.3069,2.3095,0,0,2.3073,2.3074,0,0,0,0,0,0,0,0,2.304,2.3043,2.3058,2.3058,2.3057,2.3065,2.3066,2.3082,2.306,2.3058,2.3057,2.3056,2.3067,2.3069,2.3073,2.3095,2.3095,2.3073,2.3074,2.3075,2.3075,0,0,0,0,0,0,0,2.3039,2.3042,2.3068,2.3058,2.3058,2.3054,2.3055,2.3069,2.3068,2.3058,2.3057,2.3059,2.3067,2.3071,2.3073,2.3096,2.3073,2.3074,2.3075,2.3076,2.3142,2.3142,0,0,0,0,0,0,2.3039,2.3041,2.3068,2.3069,2.3047,2.3055,2.3056,2.3063,2.3067,2.3067,2.306,2.3058,2.307,2.3071,2.3073,2.3104,2.3075,2.3076,2.3076,2.3141,2.3142,2.3143,0,0,0,0,0,0,2.3039,2.3042,2.3067,2.3055,2.3058,2.3057,2.3065,2.3064,2.3069,2.3068,2.3068,2.3065,2.3069,2.3071,2.309,2.3104,2.3076,2.3077,2.3139,2.3141,2.3142,2.3165,0,0,0,0,0,0,2.3038,2.3042,2.3051,2.3055,2.3058,2.3084,2.3066,2.3065,2.3071,2.3069,2.3073,2.3073,2.3069,2.3088,2.3091,2.3105,2.3078,2.3138,2.314,2.3142,2.3163,2.3167,2.3171,0,0,0,0,0,2.3036,2.3056,2.3051,2.3055,2.307,2.3085,2.3087,2.3082,2.3072,2.3082,2.3082,2.3072,2.3102,2.309,2.3093,2.3108,2.3137,2.3139,2.3142,2.3161,2.3166,2.317,0,0,0,0,0,0,2.3052,2.3056,2.3051,2.3073,2.3079,2.3082,2.3094,2.3088,2.3096,2.3094,2.3087,2.3089,2.3109,2.311,2.3097,2.3134,2.3118,2.3121,2.3132,2.3136,2.314,2.3139,2.3079,0,0,0,0,0,2.3058,2.307,2.3073,2.3092,2.3095,2.3094,2.3101,2.3097,2.3103,2.3105,2.3106,2.3112,2.3123,2.313,2.3139,2.3164,2.3165,2.3175,2.3179,2.3182,2.3185,2.3199,2.3204,2.315,2.315,2.315,0,0,2.307,2.3074,2.3082,2.3095,2.3099,2.3112,2.3096,2.311,2.312,2.3107,2.3125,2.3127,2.3132,2.3154,2.3164,2.3156,2.32,2.3185,2.3188,2.3188,2.3202,2.3207,2.3212,2.3152,2.3152,2.3151,0,0,2.3099,2.3103,2.312,2.3126,2.3133,2.3133,2.3137,2.3142,2.3143,2.3161,2.3153,2.3164,2.3182,2.3187,2.3192,2.3227,2.3219,2.3231,2.325,2.3264,2.3269,2.3272,2.3285,2.329,2.3233,2.3233,2.3233,0,2.3113,2.3133,2.3129,2.3145,2.3151,2.3142,2.316,2.3165,2.3174,2.3179,2.3171,2.3195,2.3198,2.3222,2.3231,2.3235,2.324,2.3229,2.3268,2.3272,2.3275,2.3288,2.3293,2.3235,2.3234,2.3234,2.3234,0,2.315,2.3164,2.3177,2.3188,2.3197,2.3213,2.3212,2.3221,2.3218,2.3219,2.3238,2.3243,2.3254,2.3259,2.3255,2.3283,2.3279,2.3269,2.3253,2.3282,2.3294,2.3298,2.3237,2.3236,2.3236,2.3235,0,0,2.3187,2.3199,2.3204,2.321,2.3218,2.3229,2.3246,2.3258,2.3266,2.3274,2.3288,2.3305,2.3298,2.3304,2.33,2.3313,2.3342,2.3302,2.3303,2.331,2.3374,2.3381,2.3386,2.3337,2.3338,2.3339,2.3374,0,2.3217,2.3246,2.3245,2.3272,2.3286,2.3279,2.3293,2.3301,2.3303,2.3314,2.3316,2.3329,2.3318,2.3321,2.3334,2.3336,2.3355,2.3333,2.335,2.3351,2.3349,2.3392,2.3399,2.3432,2.3378,2.3379,2.338,0,2.3254,2.3265,2.3295,2.3304,2.3309,2.3323,2.3335,2.3346,2.3355,2.3356,2.3364,2.336,2.3377,2.3362,2.3387,2.3372,2.3379,2.3382,2.3383,2.3384,2.3366,2.3395,2.3442,2.3447,2.3387,2.3386,2.3386,0,2.3279,2.3301,2.3322,2.3327,2.3338,2.3348,2.3353,2.3361,2.337,2.3381,2.3386,2.3399,2.3405,2.3415,2.3415,2.3404,2.344,2.3425,2.3442,2.3442,2.3449,2.3448,2.3498,2.3454,2.3454,2.3454,2.3453,0,2.3312,2.333,2.3334,2.3346,2.3367,2.3366,2.3387,2.3391,2.3399,2.3413,2.3407,2.342,2.3419,2.3432,2.3432,2.3453,2.3456,2.3457,2.3457,2.3458,2.3458,2.3462,2.3459,2.3455,2.3455,2.3454,2.3454,0,2.3342,2.3345,2.3368,2.3377,2.338,2.3395,2.3404,2.3416,2.3419,2.3436,2.3441,2.3444,2.346,2.3461,2.3479,2.3479,2.3505,2.3502,2.3502,2.3501,2.3518,2.3517,2.3572,2.358,2.3531,2.3531,2.3532,0,2.3363,2.3377,2.3389,2.3399,2.3405,2.3419,2.3429,2.3429,2.3439,2.3452,2.3463,2.3479,2.3491,2.3517,2.3521,2.3535,2.3532,2.3551,2.3534,2.3535,2.3533,2.3532,2.3534,2.3554,2.3555,2.3555,2.3555,0,2.3399,2.3401,2.3414,2.343,2.3441,2.3453,2.3464,2.3472,2.3474,2.3485,2.3502,2.3512,2.3531,2.3547,2.3561,2.3566,2.3562,2.3561,2.3566,2.3566,2.3566,2.3567,2.3511,2.3559,2.3559,2.3559,2.3558,2.3558,2.3425,2.3438,2.345,2.3466,2.3475,2.3486,2.3499,2.3504,2.3518,2.3535,2.3535,2.3553,2.3564,2.3583,2.359,2.3605,2.3598,2.3605,2.3606,2.3608,2.361,2.3564,2.3607,2.3607,2.3607,2.3607,2.3607,0,2.3462,2.347,2.3485,2.3501,2.3514,2.351,2.3523,2.3534,2.3551,2.3562,2.3575,2.3595,2.3611,2.3618,2.3634,2.3645,2.3643,2.3649,2.3648,2.3649,2.3615,2.3609,2.365,2.365,2.365,2.365,2.365,2.365,2.3482,2.3505,2.3508,2.3536,2.3543,2.3563,2.357,2.3581,2.359,2.3613,2.3627,2.3632,2.3641,2.3659,2.3673,2.3675,2.3681,2.3688,2.3689,2.3656,2.3652,2.3647,2.3642,2.3689,2.3689,2.3722,2.3723,2.3723]},{"header":{"parameterUnit":"m.s-1","parameterCategory":1,"la1":30.2991,"la2":30.254,"lo1":-89.0895,"lo2":-89.0444,"dy":0.0017,"dx":0.0017,"nx":28,"ny":28,"refTime":"2025-12-28T09:00:00:Z","depth":0,"parameterNumber":3,"parameterNumberName":"V-component_of_WINDS"},"data":[0,0,0,0,0,0,0,0,0,0,0,0,0,0,0,0,0,0,0,0,0,0,0,0,0,0,0,0,0,0,0,0,0,0,0,0,0,0,0,0,0,0,0,0,0,0,0,0,0,0,0,0,0,0,0,0,0,0,-10.3741,-10.3743,0,-10.392,-10.3922,-10.3924,-10.3839,-10.3834,-10.383,-10.3825,-10.4002,-10.401,-10.4019,0,0,0,0,0,0,0,0,0,0,0,0,0,-10.3322,-10.333,-10.3741,-10.3744,-10.3746,-10.392,-10.3923,-10.3925,-10.3839,-10.3834,-10.3828,-10.3823,-10.3999,-10.4009,-10.402,0,0,0,0,0,0,0,0,0,0,0,0,0,-10.3502,-10.3332,-10.3741,-10.3724,-10.3725,-10.392,-10.3923,-10.3926,-10.3841,-10.3834,-10.3827,-10.382,-10.3995,-10.4008,-10.4022,-10.4241,0,0,-10.4063,-10.4068,0,0,0,0,0,0,0,0,-10.3492,-10.3518,-10.3725,-10.3726,-10.3727,-10.385,-10.3839,-10.4031,-10.3842,-10.3796,-10.3825,-10.3817,-10.3956,-10.3973,-10.4021,-10.425,-10.4257,-10.4064,-10.4072,-10.4078,-10.4082,0,0,0,0,0,0,0,-10.348,-10.351,-10.3812,-10.3728,-10.3729,-10.3707,-10.3725,-10.3875,-10.3912,-10.38,-10.3794,-10.3817,-10.3956,-10.4008,-10.4024,-10.426,-10.4063,-10.4075,-10.4084,-10.4089,-10.4681,-10.4688,0,0,0,0,0,0,-10.3469,-10.35,-10.3806,-10.3817,-10.359,-10.372,-10.374,-10.3817,-10.3911,-10.3918,-10.3822,-10.3812,-10.3989,-10.4009,-10.403,-10.4296,-10.4078,-10.409,-10.4098,-10.4673,-10.4682,-10.4691,0,0,0,0,0,0,-10.346,-10.3497,-10.3799,-10.3657,-10.3694,-10.3734,-10.3822,-10.3824,-10.3877,-10.3928,-10.3933,-10.387,-10.3984,-10.4011,-10.4191,-10.4301,-10.4096,-10.4108,-10.4664,-10.4676,-10.4687,-10.4828,0,0,0,0,0,0,-10.3448,-10.3494,-10.3579,-10.366,-10.3702,-10.3958,-10.3829,-10.3833,-10.3901,-10.389,-10.3974,-10.3981,-10.3981,-10.4171,-10.4204,-10.4316,-10.4119,-10.4654,-10.4669,-10.4683,-10.4814,-10.4843,-10.4868,0,0,0,0,0,-10.3434,-10.3609,-10.3583,-10.3621,-10.3809,-10.3964,-10.3988,-10.3987,-10.391,-10.3996,-10.4029,-10.3978,-10.4284,-10.419,-10.4227,-10.4344,-10.4647,-10.4665,-10.4682,-10.4802,-10.4837,-10.4867,0,0,0,0,0,0,-10.3537,-10.3619,-10.3592,-10.3799,-10.3876,-10.395,-10.4057,-10.4024,-10.4122,-10.4107,-10.4098,-10.4118,-10.4305,-10.4342,-10.4236,-10.4563,-10.4454,-10.4479,-10.4532,-10.4567,-10.4593,-10.4581,-10.413,0,0,0,0,0,-10.3584,-10.3705,-10.377,-10.3947,-10.3987,-10.4016,-10.4083,-10.4076,-10.4154,-10.4186,-10.4231,-10.4308,-10.4421,-10.4495,-10.4602,-10.4819,-10.4837,-10.4917,-10.4945,-10.4967,-10.4989,-10.5109,-10.5146,-10.4747,-10.4747,-10.4747,0,0,-10.3682,-10.3742,-10.3819,-10.3969,-10.4028,-10.4153,-10.4044,-10.4179,-10.4272,-10.4205,-10.4379,-10.4416,-10.45,-10.47,-10.479,-10.4736,-10.5103,-10.4989,-10.5006,-10.5016,-10.513,-10.5168,-10.5202,-10.4759,-10.4757,-10.4755,0,0,-10.3925,-10.3983,-10.4138,-10.42,-10.4292,-10.431,-10.4348,-10.4428,-10.4451,-10.4626,-10.4579,-10.4688,-10.4883,-10.4946,-10.5004,-10.5276,-10.5234,-10.531,-10.5452,-10.5569,-10.5601,-10.5628,-10.5727,-10.5763,-10.5332,-10.5332,-10.5333,0,-10.4035,-10.4223,-10.4221,-10.4363,-10.4431,-10.438,-10.4537,-10.4597,-10.4717,-10.4765,-10.4704,-10.4951,-10.5003,-10.5219,-10.5286,-10.5333,-10.5376,-10.5301,-10.5597,-10.5625,-10.565,-10.5745,-10.5782,-10.5341,-10.534,-10.5339,-10.5339,0,-10.4355,-10.4487,-10.4601,-10.4723,-10.4804,-10.4952,-10.4972,-10.5054,-10.5041,-10.5066,-10.5245,-10.5308,-10.5428,-10.5478,-10.5464,-10.5693,-10.5657,-10.5597,-10.5487,-10.5698,-10.5786,-10.5822,-10.5354,-10.5351,-10.5348,-10.5346,0,0,-10.4666,-10.4788,-10.483,-10.4887,-10.4986,-10.5087,-10.5233,-10.5354,-10.5426,-10.5511,-10.5634,-10.5802,-10.5749,-10.5814,-10.5807,-10.591,-10.6125,-10.5837,-10.5839,-10.589,-10.6382,-10.6428,-10.647,-10.6097,-10.6104,-10.611,-10.6376,0,-10.4918,-10.5177,-10.5182,-10.542,-10.5542,-10.5497,-10.5625,-10.5699,-10.5728,-10.5834,-10.5864,-10.5985,-10.5903,-10.5943,-10.6043,-10.6078,-10.6223,-10.6058,-10.6212,-10.6217,-10.6193,-10.6516,-10.6564,-10.6812,-10.641,-10.6416,-10.642,0,-10.5245,-10.5346,-10.5598,-10.5683,-10.5734,-10.585,-10.5962,-10.6065,-10.6149,-10.6162,-10.6238,-10.6217,-10.6366,-10.6252,-10.6458,-10.6346,-10.6409,-10.6436,-10.6446,-10.646,-10.6332,-10.6541,-10.6891,-10.6929,-10.6474,-10.647,-10.6466,0,-10.545,-10.5648,-10.5825,-10.5874,-10.5977,-10.606,-10.6106,-10.6183,-10.6257,-10.6354,-10.6402,-10.6515,-10.6577,-10.6665,-10.6675,-10.659,-10.6883,-10.6769,-10.6898,-10.6898,-10.6962,-10.6958,-10.7329,-10.7001,-10.7,-10.7,-10.6999,0,-10.5731,-10.5887,-10.5919,-10.6028,-10.6202,-10.6205,-10.6377,-10.6416,-10.6486,-10.6601,-10.6568,-10.6676,-10.6683,-10.6794,-10.6802,-10.6973,-10.7,-10.7015,-10.7016,-10.7019,-10.7018,-10.7061,-10.7044,-10.701,-10.7007,-10.7005,-10.7004,0,-10.5989,-10.6016,-10.6207,-10.629,-10.6315,-10.644,-10.651,-10.6614,-10.664,-10.6787,-10.6821,-10.6862,-10.6992,-10.7011,-10.7161,-10.7167,-10.7373,-10.7354,-10.7346,-10.7344,-10.7473,-10.7461,-10.7885,-10.7942,-10.7576,-10.7579,-10.7582,0,-10.6167,-10.6287,-10.6385,-10.6461,-10.6513,-10.6636,-10.6712,-10.672,-10.6801,-10.6908,-10.6999,-10.7126,-10.7228,-10.7438,-10.748,-10.7596,-10.7581,-10.7721,-10.7597,-10.7598,-10.7585,-10.7578,-10.7591,-10.7745,-10.7749,-10.7752,-10.7755,0,-10.6481,-10.649,-10.6602,-10.6722,-10.6814,-10.6907,-10.6995,-10.7059,-10.7078,-10.717,-10.7305,-10.7384,-10.7541,-10.7668,-10.7784,-10.7829,-10.7797,-10.7794,-10.7831,-10.7836,-10.7827,-10.7836,-10.7413,-10.7784,-10.7781,-10.7779,-10.7778,-10.7776,-10.6706,-10.6811,-10.6898,-10.7025,-10.7093,-10.7177,-10.728,-10.7321,-10.7434,-10.7565,-10.7562,-10.771,-10.7793,-10.7945,-10.8,-10.8115,-10.8069,-10.8121,-10.8134,-10.8148,-10.8162,-10.7808,-10.8136,-10.8135,-10.8134,-10.8133,-10.8133,0,-10.702,-10.7075,-10.7192,-10.7318,-10.7419,-10.7382,-10.7478,-10.7564,-10.7696,-10.7777,-10.788,-10.8036,-10.816,-10.8213,-10.8334,-10.8417,-10.8405,-10.8449,-10.8443,-10.8455,-10.8195,-10.8152,-10.8456,-10.8456,-10.8456,-10.8456,-10.8456,-10.8456,-10.7195,-10.7374,-10.7393,-10.7605,-10.7658,-10.7806,-10.7864,-10.7941,-10.8007,-10.8183,-10.8288,-10.8323,-10.8393,-10.852,-10.8633,-10.8645,-10.8692,-10.8743,-10.8749,-10.8505,-10.8472,-10.8441,-10.8401,-10.8753,-10.8753,-10.8999,-10.9002,-10.9003]}]]